Date,TemperatureHighF,TemperatureAvgF,TemperatureLowF,DewpointHighF,DewpointAvgF,DewpointLowF,HumidityHigh,HumidityAvg,HumidityLow,PressureMaxIn,PressureMinIn,WindSpeedMaxMPH,WindSpeedAvgMPH,GustSpeedMaxMPH,PrecipitationSumIn
2013-1-1,37.1,30.7,19.6,25.9,18.5,8.1,76,61,49,29.94,29.73,11,3,14,0.02
2013-1-2,31.5,22.2,10.4,15.4,10.1,3.7,76,60,49,30.11,29.90,10,3,14,0.00
2013-1-3,28.6,17.1,5.6,12.7,4.6,-4.0,71,58,43,30.15,29.97,4,0,8,0.00
2013-1-4,39.4,27.9,14.2,26.3,18.1,8.9,82,67,54,29.97,29.81,8,2,10,0.03
2013-1-5,41.4,32.6,22.5,24.9,19.9,13.9,71,60,46,30.23,29.86,13,2,13,0.00
2013-1-6,46.1,32.3,23.0,31.3,23.3,15.0,83,70,54,30.18,29.90,7,1,8,0.02
2013-1-7,40.7,30.2,19.8,27.8,20.6,12.8,86,69,47,30.36,29.96,8,1,10,0.00
2013-1-8,48.2,32.4,17.8,30.7,22.7,11.9,86,69,49,30.33,30.24,8,1,12,0.00
2013-1-9,40.7,32.2,20.9,33.3,25.5,15.6,82,76,67,30.34,30.01,5,1,7,0.00
2013-1-10,44.3,42.8,40.5,28.6,26.6,24.6,61,53,48,30.20,30.07,12,6,22,0.00
2013-1-15,40.1,39.9,38.7,27.5,26.8,25.6,61,59,57,30.24,30.21,2,1,5,0.00
2013-3-11,52.9,46.5,36.9,40.5,37.8,31.1,82,72,60,30.21,30.08,8,3,9,0.18
2013-3-14,34.6,30.3,27.9,18.5,13.6,10.2,62,50,41,29.82,29.75,18,6,18,0.03
2013-3-15,43.7,33.0,25.2,27.3,17.0,8.2,81,53,36,29.85,29.62,17,4,17,0.02
2013-3-16,40.7,34.8,28.1,26.7,17.6,13.4,72,50,37,29.84,29.68,10,2,10,0.00
2013-3-17,39.2,31.9,24.8,16.3,11.4,7.7,61,43,29,30.26,29.84,14,3,14,0.05
2013-3-18,41.6,30.6,19.1,25.2,9.9,3.4,83,44,25,30.40,30.10,8,2,8,0.00
2013-3-19,38.0,33.3,29.5,33.4,28.7,23.7,89,83,78,30.10,29.59,9,2,9,0.32
2013-3-20,41.6,32.8,24.1,27.5,20.4,17.1,82,61,41,29.76,29.69,13,3,13,0.14
2013-3-21,43.0,33.2,23.4,22.9,18.1,12.9,81,56,33,29.77,29.55,8,1,8,0.05
2013-3-22,42.7,32.6,20.5,23.9,17.8,10.1,70,55,39,29.75,29.61,13,3,13,0.00
2013-3-23,43.4,36.7,31.3,24.3,21.3,17.7,70,55,39,29.80,29.68,22,5,22,0.24
2013-3-24,47.9,38.9,28.6,25.3,22.7,18.7,69,53,40,29.82,29.67,11,3,11,0.00
2013-3-25,48.1,38.6,31.5,28.5,25.3,21.4,71,59,43,29.71,29.42,11,2,11,0.00
2013-3-26,49.3,40.8,30.4,31.6,25.6,17.7,72,56,36,29.76,29.51,13,2,13,0.00
2013-3-27,54.9,40.5,23.8,32.0,24.6,17.3,80,55,32,29.85,29.73,14,2,14,0.00
2013-3-28,53.5,44.4,32.0,35.8,30.4,22.3,79,58,42,30.00,29.84,11,2,11,0.00
2013-3-29,57.6,45.0,32.4,35.2,30.7,25.4,79,58,37,30.03,29.95,13,2,13,0.00
2013-3-30,59.0,47.9,32.8,33.3,22.8,18.1,73,39,23,30.06,29.98,13,2,14,0.00
2013-3-31,58.0,44.0,27.4,38.0,27.9,18.7,77,55,29,30.08,29.62,14,2,14,0.10
2013-4-1,61.9,46.3,34.2,45.2,35.3,16.9,87,67,43,29.81,29.49,17,3,17,0.21
2013-4-2,41.2,34.8,28.4,19.4,14.1,10.1,59,43,29,29.95,29.80,19,4,19,0.01
2013-4-3,45.2,36.8,30.6,19.4,15.0,12.2,59,42,28,30.19,29.94,19,6,19,0.08
2013-4-4,56.7,41.5,26.3,27.7,20.8,13.5,65,45,24,30.29,30.01,12,3,12,0.00
2013-4-5,61.6,46.4,37.3,30.7,26.1,14.9,69,48,21,30.01,29.62,19,4,19,0.00
2013-4-6,58.0,40.9,31.9,25.5,14.5,7.7,61,36,20,30.26,29.89,16,4,16,0.00
2013-4-7,56.9,43.6,28.4,39.8,28.6,14.4,75,57,40,30.26,29.94,16,4,16,0.00
2013-4-8,69.5,53.9,38.3,42.3,38.3,33.0,85,59,35,30.03,29.90,9,2,9,0.00
2013-4-9,73.3,60.9,48.8,52.5,43.1,37.4,80,54,34,29.97,29.82,13,3,13,0.00
2013-4-10,70.0,58.6,49.1,51.4,46.9,38.9,82,66,51,29.93,29.76,7,1,7,0.24
2013-4-11,52.2,51.8,51.5,45.9,45.9,45.8,81,80,79,29.81,29.80,1,1,1,0.00